Volver al catálogo

STARLINK-36822

ActivoComunicacionesVLEO
NORAD 67909·PAYLOAD·🇺🇸 United States

Lanzado Feb 22, 2026 desde Vandenberg Space Force Base

Loading…

Próximos Pases (próximas 24 horas)

TLE

ActualizadoSource: CelesTrak SupGP

Época: Sep 14, 2026, 22:30 UTC

1 67909C 26036F   26257.93798611  .00039311  00000+0  14239-2 0  2578
2 67909  42.9998 256.6632 0001465 265.4838  79.3763 15.27557456    19

Sigue STARLINK-36822 en tiempo real con AllMySat

Download on the App Store